Wind_Speed
19 15 16 18 18 18 19 22 23 25 27 32 31 30 29 29 28 28 30 32 34 36 38 40 41 42 43 44 44 44 43 40
19 18 17 16 18 20 23 24 26 28 30 30 29 28 28 26 27 28 30 33 34 36 37 40 42 43 43 43 44 44 41 42
18 19 18 18 20 22 25 28 29 29 30 28 25 26 25 26 26 26 30 32 33 35 38 40 42 44 43 45 47 47 45 44
19 19 20 20 21 23 27 29 30 31 28 27 25 25 24 25 26 27 32 32 33 36 39 41 44 44 46 47 46 45 42 40
20 19 20 22 23 25 27 28 32 31 29 28 27 27 26 26 26 29 32 33 34 38 40 44 45 46 46 44 42 41 40 37
21 18 22 24 24 26 26 28 29 32 31 30 28 28 27 26 27 31 32 33 35 38 43 46 47 45 42 43 41 41 40 38
19 21 20 24 22 24 26 29 28 30 29 28 26 26 26 27 28 32 34 34 36 39 43 46 45 41 40 40 41 38 38 37
23 24 21 21 20 25 26 26 27 30 28 25 25 25 26 26 28 33 36 35 37 41 44 46 40 38 37 42 40 37 34 29
26 25 21 20 19 21 25 27 28 33 29 26 27 26 26 26 30 35 37 36 37 40 43 42 38 36 39 42 38 34 26 24
25 21 23 21 23 22 26 30 33 34 29 29 28 26 25 27 30 34 36 36 36 40 42 37 36 35 37 35 28 27 28 23
28 22 23 22 21 23 26 30 31 31 30 30 30 26 26 27 29 33 35 33 35 38 40 35 35 36 36 31 28 26 27 22
35 26 21 23 24 25 28 27 25 26 30 30 31 27 25 26 29 33 34 31 34 36 34 33 34 34 33 31 29 27 27 14
28 26 29 31 27 30 30 26 25 25 29 30 31 30 25 27 29 33 33 30 34 35 30 31 31 30 30 27 27 25 23 13
28 30 37 35 30 25 29 26 26 26 27 29 32 32 29 30 30 31 30 30 32 33 28 30 27 26 26 26 26 21 21 14
27 32 33 33 27 21 24 33 25 27 27 29 31 31 32 28 28 29 28 29 29 28 26 27 25 26 24 25 25 23 18 17
26 31 25 23 29 26 25 29 28 28 28 26 29 31 31 27 28 27 26 27 27 23 24 25 22 27 21 20 21 20 19 15
25 30 29 30 32 28 30 30 28 26 27 26 28 30 26 26 26 26 24 25 24 20 23 22 17 20 18 20 16 23 26 21
28 30 34 33 32 31 29 29 27 24 23 24 28 31 28 27 23 23 23 24 21 18 21 20 12 17 17 19 16 23 23 25
28 32 35 34 28 30 25 26 24 22 26 24 30 31 25 24 21 20 20 21 18 15 17 17 15 18 14 14 19 21 20 21
29 32 32 30 28 28 26 25 23 24 24 25 28 23 22 20 18 19 18 17 16 13 15 13 15 21 14 8 11 16 21 17
Wind_Direction
335 317 296 296 300 295 293 292 296 295 296 297 299 303 307 307 306 305 308 311 312 311 309 308 308 310 307 304 300 296 293 289
330 315 294 295 297 293 289 289 295 298 295 292 298 304 307 305 301 303 308 311 311 309 310 313 314 310 306 301 300 296 290 285
324 309 299 300 295 293 289 293 295 296 293 294 299 303 301 296 296 303 307 308 310 315 317 315 311 306 304 302 298 295 290 284
320 300 297 292 296 297 292 292 292 296 294 297 300 300 296 292 297 306 310 314 320 316 314 311 310 309 305 303 300 295 290 285
308 292 295 290 297 294 290 289 295 296 296 297 300 300 298 297 304 315 317 318 316 315 315 314 313 310 309 308 304 299 294 287
305 293 293 291 298 292 287 289 293 295 296 299 303 302 300 304 315 318 318 315 312 316 318 317 315 316 314 310 308 304 299 293
298 287 289 293 291 283 287 290 292 293 293 297 301 301 304 308 316 319 318 314 316 319 319 318 320 318 317 315 311 307 302 297
292 290 288 287 290 291 290 288 288 294 295 298 306 307 307 307 314 322 320 315 319 321 321 323 321 321 321 324 316 311 304 296
296 288 281 286 290 300 294 289 297 298 297 306 311 315 309 309 316 323 320 318 321 322 322 325 323 325 325 325 325 316 306 299
282 279 278 282 279 288 293 290 298 295 303 314 316 314 311 309 316 322 319 321 322 322 325 326 326 327 327 333 329 321 311 304
279 263 277 272 277 291 290 289 293 297 314 319 321 318 309 312 321 321 320 321 321 324 328 327 331 328 329 330 330 334 333 301
290 265 259 272 270 282 296 295 302 306 313 322 323 316 312 319 321 322 320 319 322 327 330 332 333 331 334 329 326 328 338 316
294 271 266 262 269 276 288 287 299 311 317 323 321 315 316 315 322 322 318 321 325 330 331 337 339 340 346 349 346 336 331 327
284 275 270 266 264 282 288 300 301 306 317 321 319 314 311 312 321 320 318 324 328 332 334 339 343 353 355 350 354 349 339 328
267 285 284 274 268 277 283 298 304 305 315 316 315 315 309 315 320 318 318 326 330 332 337 340 350 349 346 350 350 354 345 328
270 281 275 279 277 288 295 295 301 298 307 312 314 314 312 313 318 317 318 328 333 332 338 343 347 351 349 351 3 9 23 32
270 271 278 276 280 296 297 294 296 294 303 307 312 313 314 309 315 315 320 329 336 332 340 344 353 6 11 9 3 24 33 32
262 271 270 271 285 295 285 285 296 294 294 299 303 308 312 307 314 313 322 330 339 334 344 351 4 14 3 20 30 32 38 43
263 265 278 284 292 290 295 296 299 295 289 292 295 305 302 309 310 312 324 332 342 337 351 13 15 352 348 16 21 24 34 49
268 275 281 291 296 293 299 304 301 290 287 288 296 301 300 309 307 310 325 332 343 334 351 11 8 4 354 342 5 45 41 42
Height
5891 5891 5892 5889 5886 5884 5881 5880 5877 5874 5872 5868 5865 5862 5859 5855 5851 5848 5844 5840 5836 5833 5830 5826 5821 5815 5810 5807 5803 5799 5796 5793
5888 5886 5885 5883 5881 5880 5877 5875 5872 5870 5867 5865 5860 5858 5854 5850 5846 5842 5839 5835 5831 5827 5823 5818 5813 5809 5803 5799 5793 5790 5786 5783
5884 5882 5880 5879 5877 5876 5874 5871 5868 5865 5862 5860 5856 5853 5849 5846 5842 5838 5835 5831 5826 5821 5816 5811 5807 5801 5795 5790 5784 5779 5776 5772
5881 5878 5875 5873 5872 5871 5869 5866 5863 5861 5859 5856 5852 5849 5845 5841 5837 5833 5830 5825 5819 5815 5810 5806 5800 5793 5786 5779 5773 5768 5764 5761
5878 5875 5872 5869 5868 5866 5864 5862 5858 5856 5854 5851 5847 5844 5839 5835 5832 5827 5824 5819 5813 5809 5804 5798 5791 5783 5776 5769 5763 5757 5753 5750
5873 5870 5868 5864 5864 5862 5860 5858 5854 5851 5849 5846 5842 5839 5833 5829 5825 5822 5818 5813 5808 5803 5797 5790 5782 5774 5766 5760 5753 5747 5742 5738
5867 5864 5863 5861 5860 5857 5855 5852 5850 5846 5843 5840 5837 5834 5827 5824 5821 5818 5814 5808 5803 5797 5791 5783 5774 5766 5759 5751 5743 5736 5731 5726
5863 5860 5858 5857 5856 5853 5850 5847 5844 5841 5838 5835 5833 5828 5822 5819 5817 5813 5808 5803 5797 5791 5784 5775 5767 5760 5752 5744 5735 5728 5722 5718
5859 5855 5853 5853 5851 5848 5846 5843 5840 5836 5834 5831 5829 5823 5818 5815 5813 5808 5803 5797 5791 5785 5777 5769 5761 5754 5746 5738 5729 5722 5717 5712
5853 5851 5849 5848 5846 5845 5842 5840 5836 5832 5831 5828 5824 5819 5815 5812 5808 5804 5799 5792 5786 5779 5771 5764 5756 5749 5741 5732 5724 5718 5712 5707
5846 5844 5844 5843 5841 5840 5838 5836 5832 5829 5827 5824 5820 5814 5811 5808 5804 5800 5794 5788 5782 5774 5767 5760 5752 5744 5736 5728 5720 5713 5707 5702
5842 5839 5839 5838 5837 5834 5834 5831 5828 5825 5822 5819 5815 5810 5808 5804 5801 5795 5790 5784 5777 5769 5764 5756 5748 5741 5732 5724 5716 5710 5703 5697
5836 5835 5833 5832 5832 5831 5828 5827 5825 5822 5819 5815 5811 5808 5804 5801 5797 5792 5787 5780 5772 5766 5760 5753 5746 5738 5730 5722 5715 5707 5701 5696
5831 5830 5827 5827 5827 5827 5824 5823 5823 5820 5816 5812 5808 5804 5801 5797 5793 5789 5783 5776 5769 5764 5758 5751 5744 5737 5730 5722 5715 5706 5699 5695
5829 5823 5822 5823 5824 5824 5822 5819 5820 5816 5813 5810 5805 5802 5798 5795 5791 5786 5780 5774 5767 5762 5756 5749 5742 5737 5731 5724 5716 5707 5700 5694
5824 5821 5818 5818 5818 5819 5820 5817 5814 5812 5809 5806 5802 5798 5795 5792 5788 5783 5777 5771 5766 5760 5754 5748 5741 5737 5730 5725 5718 5710 5703 5696
5819 5816 5814 5814 5813 5815 5813 5811 5809 5807 5804 5801 5798 5794 5791 5789 5785 5780 5775 5769 5764 5758 5753 5747 5742 5737 5731 5726 5720 5714 5707 5699
5813 5811 5809 5809 5810 5810 5807 5806 5805 5802 5800 5797 5794 5790 5788 5785 5781 5777 5773 5767 5762 5757 5751 5746 5742 5739 5734 5729 5723 5717 5711 5705
5807 5805 5802 5803 5805 5802 5801 5801 5799 5797 5795 5793 5790 5787 5784 5781 5778 5774 5770 5766 5760 5757 5751 5747 5743 5739 5735 5731 5725 5720 5714 5709
5800 5799 5799 5800 5799 5797 5797 5795 5794 5791 5790 5788 5786 5783 5780 5778 5774 5772 5768 5764 5759 5757 5751 5747 5744 5740 5736 5733 5728 5723 5718 5714